Change the Weather History Date:

Wednesday, November 6, 2013

  Actual Average Record
Temperature  
Mean Temperature 53 °F -  
Max Temperature 59 °F 47 °F 59 °F (2013)
Min Temperature 47 °F 38 °F 34 °F (2012)
Degree Days  
Heating Degree Days 12    
Growing Degree Days 3 (Base 50)    
Moisture  
Dew Point 48 °F    
Average Humidity 85    
Maximum Humidity 100    
Minimum Humidity 64    
Precipitation  
Precipitation 0.08 in - - ()
Sea Level Pressure  
Sea Level Pressure 29.49 in    
Wind  
Wind Speed 12 mph ()    
Max Wind Speed 28 mph    
Max Gust Speed 45 mph    
Visibility 6.2 miles    
Events Rain    
Averages and records for this station are not official NWS values.
T = Trace of Precipitation, MM = Missing Value Source: Averaged Metar Reports

Daily Weather History Graph

Daily Weather History Graph

Search for Another Location

Airport or City:

Trip Planner

Search our weather history database for the weather conditions in past years. The results will help you decide how hot, cold, wet, or windy it might be!

Date:

Astronomy

Nov. 06, 2013 Rise Set
Actual Time 7:46 AM CET 5:04 PM CET
Civil Twilight 7:09 AM CET 5:41 PM CET
Nautical Twilight 6:29 AM CET 6:21 PM CET
Astronomical Twilight 5:50 AM CET 7:00 PM CET
Moon 10:57 AM CET (11/6) 7:41 PM CET (11/6)
Length of Visible Light 10h 31m
Length of Day
9h 18m
Waxing Crescent, 11% of the Moon is Illuminated
Nov 6
Waxing Crescent
Nov 10
First Quarter
Nov 17
Full
Nov 25
Last Quarter
Dec 3
New

Hourly Weather History & Observations

Time (CET) Temp. Dew Point Humidity Pressure Visibility Wind Dir Wind Speed Gust Speed Precip Events Conditions
12:25 AM 50.0 °F 42.8 °F 76% 29.36 in 6.2 mi West 13.8 mph - N/A   Scattered Clouds
12:55 AM 50.0 °F 42.8 °F 76% 29.36 in 6.2 mi West 18.4 mph 34.5 mph N/A   Mostly Cloudy
1:00 AM 49 °F 43 °F 71% 29.39 in 14 mi West 15.7 mph - - Rain Rain
1:25 AM 50.0 °F 42.8 °F 76% 29.39 in 6.2 mi West 15.0 mph 27.6 mph N/A   Scattered Clouds
1:55 AM 50.0 °F 42.8 °F 76% 29.39 in 6.2 mi West 16.1 mph - N/A   Partly Cloudy
2:25 AM 50.0 °F 42.8 °F 76% 29.42 in 6.2 mi West 13.8 mph - N/A   Partly Cloudy
2:55 AM 48.2 °F 41.0 °F 76% 29.42 in 6.2 mi West 15.0 mph - N/A   Partly Cloudy
3:25 AM 50.0 °F 41.0 °F 71% 29.42 in 6.2 mi West 13.8 mph - N/A   Partly Cloudy
3:55 AM 48.2 °F 41.0 °F 76% 29.44 in 6.2 mi West 12.7 mph - N/A   Partly Cloudy
4:00 AM 49 °F 40 °F 64% 29.47 in 14 mi West 13.4 mph - -   Mostly Cloudy
4:25 AM 48.2 °F 41.0 °F 76% 29.44 in 6.2 mi West 10.4 mph - N/A   Mostly Cloudy
4:55 AM 50.0 °F 41.0 °F 71% 29.47 in 6.2 mi West 10.4 mph - N/A   Partly Cloudy
5:25 AM 50.0 °F 41.0 °F 71% 29.47 in 6.2 mi West 13.8 mph - N/A   Unknown
5:55 AM 48.2 °F 41.0 °F 76% 29.47 in 6.2 mi West 6.9 mph - N/A   Unknown
6:25 AM 48.2 °F 42.8 °F 82% 29.47 in 6.2 mi WSW 6.9 mph - N/A   Mostly Cloudy
6:55 AM 48.2 °F 44.6 °F 87% 29.47 in 6.2 mi WSW 6.9 mph - N/A   Mostly Cloudy
7:00 AM 49 °F 44 °F 77% 29.50 in 11 mi WSW 8.9 mph - - Rain Rain
7:25 AM 50.0 °F 42.8 °F 76% 29.47 in 6.2 mi WSW 9.2 mph - N/A   Partly Cloudy
7:55 AM 50.0 °F 42.8 °F 76% 29.50 in 6.2 mi WSW 8.1 mph - N/A   Mostly Cloudy
8:25 AM 50.0 °F 42.8 °F 76% 29.50 in 6.2 mi West 10.4 mph - N/A   Scattered Clouds
8:55 AM 50.0 °F 42.8 °F 76% 29.50 in 6.2 mi WSW 8.1 mph - N/A   Scattered Clouds
9:25 AM 51.8 °F 44.6 °F 76% 29.50 in 6.2 mi WSW 10.4 mph - N/A   Mostly Cloudy
9:55 AM 51.8 °F 44.6 °F 76% 29.53 in 6.2 mi WSW 11.5 mph - N/A   Partly Cloudy
10:00 AM 53 °F 45 °F 67% 29.54 in 11 mi WSW 13.4 mph - - Rain Rain
10:25 AM 53.6 °F 44.6 °F 72% 29.53 in 6.2 mi WSW 11.5 mph - N/A   Partly Cloudy
10:55 AM 53.6 °F 46.4 °F 77% 29.53 in 6.2 mi WSW 9.2 mph - N/A   Mostly Cloudy
11:25 AM 53.6 °F 48.2 °F 82% 29.53 in 6.2 mi WSW 11.5 mph - N/A   Scattered Clouds
11:55 AM 51.8 °F 48.2 °F 88% 29.53 in 6.2 mi WSW 13.8 mph - N/A   Drizzle
12:25 PM 51.8 °F 48.2 °F 88% 29.53 in 6.2 mi WSW 12.7 mph - N/A   Overcast
12:55 PM 53.6 °F 50.0 °F 88% 29.53 in 6.2 mi SW 13.8 mph - N/A   Mostly Cloudy
1:00 PM 53 °F 50 °F 87% 29.55 in 6 mi SW 13.4 mph - - Rain Rain
1:25 PM 53.6 °F 50.0 °F 88% 29.53 in 6.2 mi SW 12.7 mph - N/A   Mostly Cloudy
1:55 PM 51.8 °F 50.0 °F 94% 29.53 in 6.2 mi SW 15.0 mph - N/A   Mostly Cloudy
2:25 PM 51.8 °F 50.0 °F 94% 29.53 in 6.2 mi SW 13.8 mph - N/A   Overcast
2:55 PM 51.8 °F 51.8 °F 100% 29.56 in 3.1 mi SW 11.5 mph - N/A Rain Drizzle
3:25 PM 51.8 °F 50.0 °F 94% 29.56 in 3.7 mi WSW 10.4 mph - N/A   Overcast
3:55 PM 51.8 °F 50.0 °F 94% 29.53 in 5.0 mi WSW 8.1 mph - N/A   Light Drizzle
4:00 PM 51 °F 51 °F 98% 29.56 in 4 mi WSW 6.7 mph - - Rain Drizzle
4:25 PM 50.0 °F 50.0 °F 100% 29.53 in 3.1 mi WSW 6.9 mph - N/A   Drizzle
4:55 PM 50.0 °F 50.0 °F 100% 29.53 in 4.3 mi WSW 3.5 mph - N/A   Drizzle
5:25 PM 51.8 °F 51.8 °F 100% 29.53 in 5.0 mi South 4.6 mph - N/A   Light Drizzle
5:55 PM 51.8 °F 51.8 °F 100% 29.53 in 5.0 mi South 8.1 mph - N/A   Light Drizzle
6:25 PM 51.8 °F 51.8 °F 100% 29.53 in - South 8.1 mph - N/A   Drizzle
6:55 PM 51.8 °F 51.8 °F 100% 29.53 in 3.1 mi South 8.1 mph - N/A Rain Light Rain Showers
7:00 PM 52 °F 52 °F 99% 29.54 in 4 mi South 8.9 mph - - Rain Heavy Drizzle
7:25 PM 51.8 °F 51.8 °F 100% 29.53 in 3.1 mi South 9.2 mph - N/A Rain Light Rain
7:55 PM 53.6 °F 53.6 °F 100% 29.50 in - SSW 11.5 mph - N/A   Drizzle
8:25 PM 57.2 °F 55.4 °F 94% 29.50 in 6.2 mi SW 21.9 mph 38.0 mph N/A   Light Drizzle
8:55 PM 57.2 °F 55.4 °F 94% 29.50 in 6.2 mi SW 19.6 mph - N/A   Overcast
9:25 PM 57.2 °F 55.4 °F 94% 29.50 in 6.2 mi SW 26.5 mph - N/A   Overcast
9:55 PM 57.2 °F 55.4 °F 94% 29.50 in 6.2 mi SW 25.3 mph - N/A   Overcast
10:00 PM 58 °F 55 °F 86% 29.51 in 7 mi SW 24.6 mph - -   Partly Cloudy
10:25 PM 57.2 °F 55.4 °F 94% 29.50 in 6.2 mi SW 24.2 mph - N/A   Overcast
10:55 PM 57.2 °F 55.4 °F 94% 29.50 in 6.2 mi SW 26.5 mph 38.0 mph N/A   Overcast
11:25 PM 59.0 °F 53.6 °F 82% 29.50 in 6.2 mi SW 26.5 mph - N/A   Overcast
11:55 PM 59.0 °F 53.6 °F 82% 29.50 in 6.2 mi SW 27.6 mph 44.9 mph N/A   Overcast